Current weather by "City, St" or "zip code"  
 
Advertise Here

Current Conditions: Caribou, Caribou Municipal Airport, ME

Overcast


19.0 F

Last Updated on Jan 25 2021, 3:54 am EST
Humidity: 68%
Wind Speed: NW 11.5 mph
Barometer 29.78 in
Dewpoint: 10.0 F
Visibility: 10.00 mi
Precip: --
Heat Index: NA
Wind Chill: 7 F
Current conditions at:

Caribou, Caribou Municipal Airport, ME (KCAR)

Lat: 46.86722 Lon: 68.01333

Local Radar Image active severe weather and emergency alerts image image weather storm and storm spotter reports image weather observation monitoring service image
Local
Radar
Active
Alerts
Storm Reports Obs
Monitoring

Sign-up For Email & Text Message Weather Alert Notification Services


Advertise Here

Observation History for Caribou, Caribou Municipal Airport, ME


Time Wind
(mph)
Vis
(mi)
Weather Precip (in) Temperature (F) Relative
Humidity
Wind
Chill
(F)
Heat
Index
(F)
Pressure
Air Dwpt altimeter
(in)
sea level
(mb)
Rmks
3:54 am EST NW 11.5 10.00 Overcast -- 19.0 10.0 68% 7 NA 29.78 1009.7
2:54 am EST NW 13.8 G 21.9 10.00 Overcast -- 19.0 10.9 71% 6 NA 29.76 1009.2
1:54 am EST NW 12.7 G 19.6 10.00 Overcast -- 19.0 10.9 71% 6 NA 29.76 1009.1
12:54 am EST W 8.1 10.00 Overcast -- 19.0 10.9 71% 9 NA 29.75 1008.7
11:54 pm EST W 5.8 10.00 Overcast -- 18.0 10.9 74% 10 NA 29.75 1008.7
10:54 pm EST W 8.1 10.00 Mostly Cloudy -- 18.0 10.0 71% 8 NA 29.76 1009.2
9:54 pm EST NW 9.2 10.00 Overcast -- 19.0 10.9 71% 8 NA 29.75 1009.0
8:54 pm EST NW 10.4 10.00 Overcast -- 19.0 10.9 71% 7 NA 29.74 1008.4
7:54 pm EST NW 13.8 G 24.2 10.00 Overcast -- 19.0 10.9 71% 6 NA 29.73 1008.2
6:54 pm EST NW 13.8 G 21.9 10.00 Overcast -- 19.0 10.9 71% 6 NA 29.72 1007.9
5:54 pm EST NW 13.8 G 21.9 10.00 Overcast -- 19.0 10.9 71% 6 NA 29.71 1007.4
4:54 pm EST NW 15.0 G 21.9 10.00 Overcast -- 20.0 10.9 68% 6 NA 29.69 1006.7
3:54 pm EST NW 13.8 G 23.0 10.00 Overcast -- 20.0 10.9 68% 7 NA 29.66 1005.6
2:54 pm EST NW 13.8 G 27.6 10.00 Overcast -- 22.0 12.0 66% 9 NA 29.62 1004.5
1:54 pm EST NW 19.6 G 31.1 10.00 Mostly Cloudy -- 23.0 12.0 63% 8 NA 29.59 1003.3
12:54 pm EST NW 17.3 G 25.3 10.00 Overcast -- 22.0 10.9 63% 8 NA 29.57 1002.8
11:54 am EST NW 12.7 G 24.2 10.00 Overcast -- 21.0 10.0 62% 9 NA 29.56 1002.4
10:54 am EST NW 17.3 G 28.8 10.00 Overcast -- 19.0 8.1 62% 4 NA 29.56 1002.2
9:54 am EST NW 19.6 G 29.9 10.00 Overcast -- 17.0 7.0 64% NA NA 29.55 1002.2
8:54 am EST NW 19.6 G 27.6 10.00 Overcast Trace 16.0 7.0 67% -1 NA 29.53 1001.5
7:54 am EST NW 13.8 G 24.2 7.00 Light Snow 00.01 15.0 6.1 67% NA NA 29.51 1000.9
6:54 am EST NW 15.0 G 28.8 1.75 Light Snow Trace 15.0 6.1 67% NA NA 29.49 1000.1
5:54 am EST NW 13.8 G 26.5 6.00 Light Snow Trace 14.0 5.0 67% -1 NA 29.47 999.3
4:54 am EST NW 18.4 G 31.1 5.00 Light Snow Trace 13.0 3.9 67% -4 NA 29.45 998.7

Regional Weather Observation


Caribou, Caribou Municipal Airport, ME (KCAR)

Overcast
19.0 F

Presque Isle, ME (KPQI)

Overcast
17.0 F

Houlton, Houlton International Airport, ME (KHUL)

Overcast
18.0 F

Clayton Lake, ME (K40B)

NULL
11.0 F

Millinocket, Millinocket Municipal Airport, ME (KMLT)

Fair
14.0 F

Greenville, ME (KGNR)

Breezy
10.0 F